Weather History for Lawrence, KS

Change the Weather History Date:

Sunday, May 4, 2014

  Actual Average Record
Temperature  
Mean Temperature 69 °F 61 °F  
Max Temperature 89 °F 73 °F 89 °F (2012)
Min Temperature 48 °F 49 °F 33 °F (2008)
Degree Days  
Heating Degree Days 0 6  
Month to date heating degree days 34 24  
Since 1 July heating degree days 5555 5003  
Cooling Degree Days 4 1  
Month to date cooling degree days 4 4  
Year to date cooling degree days 14 27  
Growing Degree Days 18 (Base 50)    
Moisture  
Dew Point 49 °F    
Average Humidity 57    
Maximum Humidity 86    
Minimum Humidity 27    
Precipitation  
Precipitation 0.00 in 0.17 in 1.44 in (1999)
Month to date precipitation 0.00 0.71  
Year to date precipitation 5.59 9.41  
Sea Level Pressure  
Sea Level Pressure 29.77 in    
Wind  
Wind Speed 9 mph (ESE)    
Max Wind Speed 17 mph    
Max Gust Speed 21 mph    
Visibility 10 miles    
Events      
T = Trace of Precipitation, MM = Missing Value Source: NWS Daily Summary

Daily Weather History Graph

Daily Weather History Graph

Search for Another Location

Airport:

Trip Planner

Search our weather history database for the weather conditions in past years. The results will help you decide how hot, cold, wet, or windy it might be!

Date:

Astronomy

May. 04, 2014 Rise Set
Actual Time 6:19 AM CDT 8:16 PM CDT
Civil Twilight 5:50 AM CDT 8:45 PM CDT
Nautical Twilight 5:14 AM CDT 9:21 PM CDT
Astronomical Twilight 4:36 AM CDT 9:59 PM CDT
Moon 10:44 AM CDT (5/4) 12:22 AM CDT (5/4)
Length of Visible Light 14h 55m
Length of Day
13h 57m
Waxing Crescent, 28% of the Moon is Illuminated
May 4
Waxing Crescent
May 6
First Quarter
May 14
Full
May 21
Last Quarter
May 28
New

Hourly Weather History & Observations

Time (CDT) Temp. Heat Index Dew Point Humidity Pressure Visibility Wind Dir Wind Speed Gust Speed Precip Events Conditions
12:52 AM 64.0 °F - 46.0 °F 52% 29.88 in 10.0 mi East 8.1 mph - N/A   Clear
1:52 AM 57.0 °F - 46.9 °F 69% 29.87 in 10.0 mi SE 4.6 mph - N/A   Clear
2:52 AM 54.0 °F - 46.0 °F 75% 29.85 in 10.0 mi SE 5.8 mph - N/A   Clear
3:52 AM 48.9 °F - 44.1 °F 83% 29.84 in 10.0 mi East 5.8 mph - N/A   Clear
4:52 AM 48.9 °F - 45.0 °F 86% 29.84 in 10.0 mi East 6.9 mph - N/A   Clear
5:52 AM 51.1 °F - 45.0 °F 80% 29.84 in 10.0 mi East 6.9 mph - N/A   Clear
6:52 AM 55.9 °F - 46.0 °F 69% 29.83 in 10.0 mi East 9.2 mph - N/A   Clear
7:52 AM 60.1 °F - 46.9 °F 62% 29.84 in 10.0 mi ENE 10.4 mph - N/A   Clear
8:52 AM 64.9 °F - 48.9 °F 56% 29.85 in 10.0 mi East 10.4 mph - N/A   Clear
9:52 AM 71.1 °F - 48.9 °F 45% 29.83 in 10.0 mi East 5.8 mph - N/A   Clear
10:52 AM 75.0 °F - 46.9 °F 37% 29.82 in 10.0 mi SSE 9.2 mph - N/A   Clear
11:52 AM 77.0 °F - 46.9 °F 34% 29.81 in 10.0 mi SSE 8.1 mph - N/A   Clear
12:52 PM 81.0 °F - 48.9 °F 33% 29.78 in 10.0 mi South 6.9 mph - N/A   Clear
1:52 PM 82.9 °F - 48.9 °F 31% 29.77 in 10.0 mi Variable 4.6 mph - N/A   Clear
2:52 PM 84.9 °F - 51.1 °F 31% 29.75 in 10.0 mi SSE 12.7 mph 16.1 mph N/A   Clear
3:52 PM 86.0 °F - 48.9 °F 28% 29.74 in 10.0 mi SE 9.2 mph 20.7 mph N/A   Clear
4:52 PM 88.0 °F - 50.0 °F 27% 29.71 in 10.0 mi South 9.2 mph - N/A   Clear
5:52 PM 88.0 °F - 50.0 °F 27% 29.68 in 10.0 mi East 10.4 mph - N/A   Clear
6:52 PM 82.9 °F 81.8 °F 53.1 °F 36% 29.66 in 10.0 mi ENE 10.4 mph - N/A   Clear
7:52 PM 81.0 °F - 52.0 °F 36% 29.65 in 10.0 mi East 11.5 mph - N/A   Clear
8:52 PM 79.0 °F - 52.0 °F 39% 29.66 in 10.0 mi ENE 16.1 mph - N/A   Clear
9:52 PM 75.0 °F - 54.0 °F 48% 29.67 in 10.0 mi East 12.7 mph - N/A   Clear
10:52 PM 73.0 °F - 54.0 °F 51% 29.67 in 10.0 mi ENE 13.8 mph - N/A   Clear
11:52 PM 66.9 °F - 54.0 °F 63% 29.68 in 10.0 mi SE 5.8 mph - N/A   Clear